Regional Weather Roundup
Issued by NWS

Home | Current Version | Previous Version | Text Only | Print | Product List | Glossary On
Versions: 1 2 3 4 5 6 7 8 9 10 11 12 13 14 15 16 17 18 19 20 21 22 23 24 25 26 27 28 29 30 31 32 33 34 35 36 37 38 39 40 41 42 43 44 45 46 47 48 49 50
000
ASHW40 PHFO 231843
RWRHI

WEATHER ROUNDUP FOR HAWAII
NATIONAL WEATHER SERVICE HONOLULU HI
800 AM HST SUN NOV 23 2014

THIS IS AN AUTOMATED REPORT THAT HAS NOT BEEN QUALITY CONTROLLED.

NOTE..."FAIR" INDICATES FEW OR NO CLOUDS BELOW 12,000 FEET WITH NO
SIGNIFICANT WEATHER AND/OR OBSTRUCTIONS TO VISIBILITY.

* - THESE SITES REPORT LIMITED FIELDS

HIZ001>004-231900-
KAUAI-NIIHAU-

CITY           SKY/WX    TMP DP  RH WIND       PRES   REMARKS
LIHUE APT      MOSUNNY   72  66  83 W7        30.02R
PORT ALLEN*      N/A     68 N/A N/A N8          N/A
POIPU*           N/A     68 N/A N/A NW3         N/A
PRINCEVILLE*     N/A     70 N/A N/A MISG        N/A
KOKOLE POINT*    N/A     73 N/A N/A MISG        N/A
MOLOAA DAIRY*  NOT AVBL
WAIMEA HTS*      N/A     81  57  44 NE3         N/A
PUU OPAE*        N/A     72  61  68 CALM        N/A
PUU LUA*       NOT AVBL
MAKAHA RIDGE*  NOT AVBL
$$

HIZ005>011-231900-
OAHU-

CITY           SKY/WX    TMP DP  RH WIND       PRES   REMARKS
HONOLULU       MOSUNNY   73  66  78 NW5       30.00R
KALAELOA       MOSUNNY   69  65  86 CALM      30.02R
KANEOHE MCB    MOSUNNY   74  70  87 CALM      30.00R
WHEELER FIELD  FAIR      66  63  91 CALM      30.02R
BELLOWS*         N/A    N/A N/A N/A SW1         N/A
KAHUKU*          N/A    N/A N/A N/A SE2G8       N/A
WHEELER*       NOT AVBL
WAIANAE HARBOR NOT AVBL
DILLINGHAM*      N/A     61  59  94 CALM        N/A
KAHUKU TRN*      N/A     68  63  83 SE2G8       N/A
KAWAILOA*        N/A     72  61  68 E3          N/A
KII*             N/A     73  68  83 SE5         N/A
MAKUA RANGE*     N/A     70  63  78 SE5         N/A
OAHU FOREST NW   N/A    N/A N/A N/A CALM        N/A
SCHOFIELD BRK*   N/A     66  64  94 CALM        N/A
SCHOFIELD S*   NOT AVBL
WAIANAE VLY*     N/A     75  64  69 N2G8        N/A
KUAOKALA*        N/A     73  64  73 CALM        N/A
HONOULIUULI*   NOT AVBL
MOKUOLOE IS*     N/A    N/A N/A N/A MISG        N/A
PALEHUA*         N/A     82  66  57 CALM        N/A
WAIAWA PHB*    NOT AVBL
$$

HIZ012>013-231900-
MOLOKAI-

CITY           SKY/WX    TMP DP  RH WIND       PRES   REMARKS
MOLOKAI AIRPT  SUNNY     70  64  81 NE3       30.01R
KALAUPAPA      NOT AVBL
MAKAPULAPAI*     N/A     81  64  57 E3          N/A
MOLOKAI 1*       N/A    N/A N/A N/A E1          N/A
PUU ALII*        N/A     57  53  88 SE1         N/A
$$

HIZ016-231900-
KAHOOLAWE-

CITY           SKY/WX    TMP DP  RH WIND       PRES   REMARKS
KAHOOLAWE*       N/A     72 N/A N/A E15G22      N/A
HAKIOAWA*      NOT AVBL
HONOKANAIA*      N/A     78  67  69 NE12G20   30.01
KANELOA*         N/A     75  70  83 E12G18    29.22R
KEALIALALO*    NOT AVBL
LUA MAKIKA*    NOT AVBL
$$

HIZ014>015-231900-
LANAI-

CITY           SKY/WX    TMP DP  RH WIND       PRES   REMARKS
LANAI CITY       N/A    N/A N/A N/A MISG        N/A
LANAI 1*         N/A     79  66  65 SE6G12      N/A
$$

HIZ017>028-231900-
MAUI-

CITY           SKY/WX    TMP DP  RH WIND       PRES   REMARKS
KAHULUI        SUNNY     69  60  73 CALM      30.00S
KAPALUA-W MAUI MOSUNNY   72  59  64 E8        30.00S
HANA AIRPORT   MOSUNNY   77  68  73 SE8       30.04S
HANA*            N/A     77 N/A N/A SE5G10      N/A
HALEAKALA SUMM   N/A     50 -17   6 W2G16       N/A
MAALAEA BAY*   NOT AVBL
HALEAKALA*     NOT AVBL
KAUPO GAP*       N/A     66  52  59 E5G12       N/A
KULA 1*          N/A     48  14  25 CALM        N/A
$$

HIZ023>026-231900-
BIG ISLAND OF HAWAII COAST AND LOWER SLOPES-

CITY           SKY/WX    TMP DP  RH WIND       PRES   REMARKS
KAILUA KONA    MOSUNNY   77  63  61 E3        29.98R
HILO           MOSUNNY   69  63  81 SW7       30.03R
HONOKAA*       NOT AVBL
KAWAIHAE MWT*    N/A     77 N/A N/A CALM        N/A
KAWAIHAE*        N/A     79 N/A N/A SW2         N/A
SOUTH POINT*     N/A     70 N/A N/A NE14        N/A
UPOLU AIRPORT*   N/A    N/A N/A N/A E12G17      N/A
KAMUELA*       CLEAR     68  57  68 CALM      30.11S
HAKALAU*         N/A     54  44  70 SW5G10      N/A
KALOKO-HONOKO*   N/A     79  61  53 NE3       29.98R
PALI 2*          N/A     70  55  60 NE8         N/A
KEALAKOMO*       N/A     73  63  68 N6G12       N/A
KAUPULEHU*       N/A     77  57  50 W3          N/A
KAPAPALA*        N/A     63  54  72 CALM        N/A
LOWER KAHUKU*    N/A     61  52  72 N3G9        N/A
PUHE CS*       NOT AVBL
PUHO CS*         N/A     74  51  44 E3          N/A
PTA KEAMUKU*     N/A     61  55  82 CALM        N/A
WAIKOLOA*        N/A     81  57  44 E3G12       N/A
$$

HIZ027>028-231900-
BIG ISLAND OF HAWAII INTERIOR AND SUMMMITS-

CITY           SKY/WX    TMP DP  RH WIND       PRES   REMARKS
BRADSHAW FIELD MOSUNNY   55  32  41 SE7       30.32S
MK VISITOR CEN NOT AVBL
MAUNA KEA*       N/A     37 -18   8 S2          N/A
MAUNA LOA*       N/A     41 -24   6 MISG        N/A
MAUNA LOA 1*   NOT AVBL
PTA KIPUKA*      N/A    N/A N/A N/A E1G8        N/A
PTA RANGE 17*    N/A     55  45  67 SE9G15      N/A
PTA WEST*        N/A     59  45  58 SE8G18      N/A
NENE CABIN*      N/A    N/A N/A N/A NE7         N/A
AHUMOA*          N/A    N/A N/A N/A NW3         N/A
PTA PORTABLE*  NOT AVBL
PUU MALI*      NOT AVBL
$$

HIC003-231900-
NORTHWEST ISLANDS-

CITY           SKY/WX    TMP DP  RH WIND       PRES   REMARKS
MIDWAY ISLAND  MOCLDY    64  46  52 N8G16     30.26R
MIDWAY NOS*    NOT AVBL
FRENCH FRIGATE NOT AVBL
$$

PHZ110>124-180-231900-
BUOY REPORTS

STATION/POSITION TIME  TEMP    WIND        PRES    WAVE   SWELL
                       AIR SEA DIR/SP/G            HT/PER HT/DIR
                 (UTC) (F)     (DEG/KT/KT) (MB)    (FT/S) (FT/D)
BUOY 51001       NOT AVBL
BUOY 51101       1800   76 79  260/ 14/ 17 1015.5R   8/13   8/320
BUOY 51100       1700      78  110/ 17/ 19   N/A
BUOY 51003       1800   78 81   20/  4/  6 1015.7R   7/11   7
BUOY 51004       1736   78 80   70/ 16/ 19 1015.2R   8/10   7/100
BARBERS PT BUOY  NOT AVBL
WAIMEA BAY BUOY  1800      80                N/A     5/11   3/320
KAILUA BAY BUOY  1800      79                N/A     6/10   2/ 60
LANAI BUOY       1800      80                N/A     2/12   2/210
BARBERS PT 2     1800      80                N/A     4/11   2/270
PAUWELA MAUI     1800      79                N/A     6/10   3/ 80
HILO             1800      79                N/A     8/ 9   3/110
KANEOHE BAY BUOY 1800      79                N/A     6/10   2/350
HANALEI KAUAI    NOT AVBL
KAHULUI HARBOR   1800   71 78  260/  2/  3 1015.8S
HONOLULU HARBOR  1800   75     310/  2/  3 1016.5R
KILO NALU        NOT AVBL
HILO HARBOR      1800   72     190/  5/  6 1016.5R
MOKUOLOE         1800      78              1016.3R
NAWILIWILI       1800      79                N/A
WHOTS BUOY       NOT AVBL
BUOY 51028       NOT AVBL
$$

......................KEY........................................
  SKY/WX - SKY CONDITIONS/PRESENT WEATHER
  TMP    - TEMPERATURE IN FAHRENHEIT
  DWPT   - DEWPOINT IN FAHRENHEIT
  RH     - RELATIVE HUMIDITY IN PERCENT
  WIND   - DIRECTION AND SPEED /MPH FOR ISLANDS...KTS FOR BUOYS/
  PRES   - MEAN SEA LEVEL PRESSURE IN INCHES OF HG
  VSB    - VISIBILITY IN MILES
  HX     - HEAT INDEX
  WCI    - WIND CHILL INDEX
  VRB    - VARIABLE WIND DIRECTION
  N/A    - NOT AVAILABLE


USA.gov is the U.S. government's official web portal to all federal, state and local government web resources and services.